Location: Newark
(21.1200°N, 73.4000°E)
Time: 02:03:03
(UTC+00:00)

SR - Pass Details

Date: 03 February 2020
Orbit: 575 x 880 km, 66.7° (Epoch: 25 February)

Event Time Altitude Azimuth Distance (km) Brightness Sun altitude
Rises 23:44:54 0° 357° (N) 3,235 - -27.6°
Exits shadow 23:46:28 - 4° (N) 2,718 ? -27.3°
Reaches altitude 10° 23:48:02 10° 15° (NNE) 2,244 ? -26.9°
Maximum altitude 23:51:38 19° 60° (ENE) 1,638 ? -26.1°
Drops below altitude 10° 23:55:01 10° 105° (ESE) 2,097 ? -25.3°
Sets 23:57:49 0° 124° (ESE) 2,952 ? -24.6°
